User: anonymous   Login
Location: Anciles
(42.5833°N, 0.5167°E)
Time: 01:23:20
(UTC+00:00)
Language:

Aureole 1 Rocket - Orbit

View from above orbital plane
View from above orbital plane
View from above satellite
View from above satellite

Ground track
Ground track

The orbit data is extracted from the following two-line orbital elements,

1  5730U 71119B   20047.47256992 +.00000595 +00000-0 +41719-4 0  9996
2  5730 073.8926 212.4865 0691801 261.9349 090.2803 14.03939674342321
Epoch (UTC): 16 February 2020 11:20:30
Eccentricity: 0.0691801
inclination: 73.8926°
perigee height: 378 km
apogee height: 1382 km
right ascension of ascending node: 212.4865°
argument of perigee: 261.9349°
revolutions per day: 14.03939674
mean anomaly at epoch: 90.2803°
orbit number at epoch: 34232

The dashed part of the orbit path shows where the satellite is in the earth's shadow,  

DLR